Kennedy — PB7633 — position and weather

sailwx.info

Track history (hours):
 
Tides and Currents Weather Stations Pressure Air Temp Water Temp Dewpoint Dewpoint Depression Visibility Wind Speed Wind Dir Waves Ship Positions

Kennedy

Last reported at 2017-Feb-26 09:33 UTC. Time now 2017-Feb-27 14:05 UTC.
Position N 36°12' W 005°12'.

Length 15 m.

Type: Sailing vessel. MMSI: 245144000.

Date/timePositionNaut miles runAvg speedWind from/ knotsBaromVisibWave heightAir tempDewpointWater temp
2017-Feb-26 09:33N 36°12' W 005°12'6 5.7
2017-Feb-26 08:33N 36°09' W 005°18'4 4.2
2017-Feb-26 07:33N 36°07' W 005°22'3 2.7
2017-Feb-26 06:33N 36°10' W 005°22'0 0.0
2017-Feb-26 05:33N 36°10' W 005°22'0 0.0
2017-Feb-26 04:32N 36°10' W 005°22'0 0.0
2017-Feb-26 03:33N 36°10' W 005°22'0 0.0
2017-Feb-26 02:33N 36°10' W 005°22'0 0.0
2017-Feb-26 01:33N 36°10' W 005°22'0 0.0
2017-Feb-26 00:32N 36°10' W 005°22'0 0.0
2017-Feb-25 23:33N 36°10' W 005°22'0 0.0
2017-Feb-25 22:33N 36°10' W 005°22'0 0.0
2017-Feb-25 21:33N 36°10' W 005°22'0 0.0
2017-Feb-25 20:33N 36°10' W 005°22'0 0.0
2017-Feb-25 19:33N 36°10' W 005°22'0 0.0
2017-Feb-25 18:33N 36°10' W 005°22'0 0.0
2017-Feb-25 17:33N 36°10' W 005°22'0 0.0
2017-Feb-25 16:33N 36°10' W 005°22'0 0.0
2017-Feb-25 15:33N 36°10' W 005°22'5 4.8
2017-Feb-25 14:33N 36°05' W 005°23'  
2017-Feb-17 11:21N 28°08' W 015°25'0 0.0
2017-Feb-17 10:06N 28°08' W 015°25'0 0.0
2017-Feb-17 09:24N 28°08' W 015°25'0 0.0
2017-Feb-17 07:24N 28°08' W 015°25'0 0.0
2017-Feb-17 06:25N 28°08' W 015°25'0 0.0
2017-Feb-17 05:28N 28°08' W 015°25'0 0.0
2017-Feb-17 04:31N 28°08' W 015°25'0 0.0
2017-Feb-17 03:31N 28°08' W 015°25'0 0.0
2017-Feb-17 02:31N 28°08' W 015°25'0 0.0
2017-Feb-17 01:31N 28°08' W 015°25'0 0.0
2017-Feb-17 00:31N 28°08' W 015°25'0 0.0
2017-Feb-16 22:19N 28°08' W 015°25'0 0.0
2017-Feb-16 21:25N 28°08' W 015°25'0 0.0
2017-Feb-16 20:25N 28°08' W 015°25'0 0.0
2017-Feb-16 19:22N 28°08' W 015°25'0 0.0
2017-Feb-16 18:25N 28°08' W 015°25'0 0.0
2017-Feb-16 17:28N 28°08' W 015°25'0 0.0
2017-Feb-16 16:31N 28°08' W 015°25'0 0.0
2017-Feb-16 15:13N 28°08' W 015°25'0 0.0
2017-Feb-16 14:31N 28°08' W 015°25'0 0.0
2017-Feb-16 13:31N 28°08' W 015°25'0 0.0
2017-Feb-16 12:31N 28°08' W 015°25'0 0.0
2017-Feb-16 11:31N 28°08' W 015°25'0 0.0
2017-Feb-16 10:22N 28°08' W 015°25'  
Track history (hours):
 
Tides and Currents Weather Stations Pressure Air Temp Water Temp Dewpoint Dewpoint Depression Visibility Wind Speed Wind Dir Waves Ship Positions

Kennedy

Last reported at 2017-Feb-26 09:33 UTC. Time now 2017-Feb-27 14:05 UTC.
Position N 36°12' W 005°12'.

Length 15 m.

Type: Sailing vessel. MMSI: 245144000.

Date/timePositionNaut miles runAvg speedWind from/ knotsBaromVisibWave heightAir tempDewpointWater temp
2017-Feb-26 09:33N 36°12' W 005°12'6 5.7
2017-Feb-26 08:33N 36°09' W 005°18'4 4.2
2017-Feb-26 07:33N 36°07' W 005°22'3 2.7
2017-Feb-26 06:33N 36°10' W 005°22'0 0.0
2017-Feb-26 05:33N 36°10' W 005°22'0 0.0
2017-Feb-26 04:32N 36°10' W 005°22'0 0.0
2017-Feb-26 03:33N 36°10' W 005°22'0 0.0
2017-Feb-26 02:33N 36°10' W 005°22'0 0.0
2017-Feb-26 01:33N 36°10' W 005°22'0 0.0
2017-Feb-26 00:32N 36°10' W 005°22'0 0.0
2017-Feb-25 23:33N 36°10' W 005°22'0 0.0
2017-Feb-25 22:33N 36°10' W 005°22'0 0.0
2017-Feb-25 21:33N 36°10' W 005°22'0 0.0
2017-Feb-25 20:33N 36°10' W 005°22'0 0.0
2017-Feb-25 19:33N 36°10' W 005°22'0 0.0
2017-Feb-25 18:33N 36°10' W 005°22'0 0.0
2017-Feb-25 17:33N 36°10' W 005°22'0 0.0
2017-Feb-25 16:33N 36°10' W 005°22'0 0.0
2017-Feb-25 15:33N 36°10' W 005°22'5 4.8
2017-Feb-25 14:33N 36°05' W 005°23'  
2017-Feb-17 11:21N 28°08' W 015°25'0 0.0
2017-Feb-17 10:06N 28°08' W 015°25'0 0.0
2017-Feb-17 09:24N 28°08' W 015°25'0 0.0
2017-Feb-17 07:24N 28°08' W 015°25'0 0.0
2017-Feb-17 06:25N 28°08' W 015°25'0 0.0
2017-Feb-17 05:28N 28°08' W 015°25'0 0.0
2017-Feb-17 04:31N 28°08' W 015°25'0 0.0
2017-Feb-17 03:31N 28°08' W 015°25'0 0.0
2017-Feb-17 02:31N 28°08' W 015°25'0 0.0
2017-Feb-17 01:31N 28°08' W 015°25'0 0.0
2017-Feb-17 00:31N 28°08' W 015°25'0 0.0
2017-Feb-16 22:19N 28°08' W 015°25'0 0.0
2017-Feb-16 21:25N 28°08' W 015°25'0 0.0
2017-Feb-16 20:25N 28°08' W 015°25'0 0.0
2017-Feb-16 19:22N 28°08' W 015°25'0 0.0
2017-Feb-16 18:25N 28°08' W 015°25'0 0.0
2017-Feb-16 17:28N 28°08' W 015°25'0 0.0
2017-Feb-16 16:31N 28°08' W 015°25'0 0.0
2017-Feb-16 15:13N 28°08' W 015°25'0 0.0
2017-Feb-16 14:31N 28°08' W 015°25'0 0.0
2017-Feb-16 13:31N 28°08' W 015°25'0 0.0
2017-Feb-16 12:31N 28°08' W 015°25'0 0.0
2017-Feb-16 11:31N 28°08' W 015°25'0 0.0
2017-Feb-16 10:22N 28°08' W 015°25'  

Dump ship's entire track history